[[{"header":{"parameterUnit":"m.s-1","parameterCategory":1,"la1":30.2991,"la2":30.254,"lo1":-89.0895,"lo2":-89.0444,"dy":0.0017,"dx":0.0017,"nx":28,"ny":28,"refTime":"2024-06-24T21:00:00:Z","depth":0,"parameterNumber":2,"parameterNumberName":"U-component_of_WINDS"},"data":[0,0,0,0,0,0,0,0,0,0,0,0,0,0,0,0,0,0,0,0,0,0,0,0,0,0,0,0,0,0,0,0,0,0,0,0,0,0,0,0,0,0,0,0,0,0,0,0,0,0,0,0,0,0,0,0,0,0,4.7162,4.7163,0,4.7234,4.7235,4.7236,4.7162,4.7159,4.7156,4.7154,4.7233,4.7238,4.7243,0,0,0,0,0,0,0,0,0,0,0,0,0,4.6965,4.6969,4.7162,4.7163,4.7164,4.7234,4.7235,4.7236,4.7163,4.7159,4.7156,4.7152,4.7232,4.7237,4.7243,0,0,0,0,0,0,0,0,0,0,0,0,0,4.7046,4.697,4.7162,4.7135,4.7133,4.7234,4.7235,4.7237,4.7163,4.7159,4.7155,4.7151,4.723,4.7237,4.7244,4.7376,0,0,4.7266,4.7269,0,0,0,0,0,0,0,0,4.7041,4.7053,4.7138,4.7137,4.7135,4.7185,4.7195,4.7284,4.7164,4.7152,4.7153,4.7148,4.7221,4.7229,4.7252,4.738,4.7383,4.7267,4.7271,4.7274,4.7276,0,0,0,0,0,0,0,4.7036,4.7049,4.7191,4.7139,4.7138,4.7122,4.7128,4.7212,4.721,4.7153,4.7148,4.7157,4.7219,4.7245,4.7253,4.7384,4.7267,4.7273,4.7278,4.728,4.7627,4.7632,0,0,0,0,0,0,4.7032,4.7045,4.7188,4.7193,4.7076,4.7129,4.7136,4.7173,4.7209,4.721,4.7161,4.7153,4.7235,4.7245,4.7256,4.7415,4.7274,4.7281,4.7285,4.7622,4.7628,4.7633,0,0,0,0,0,0,4.7028,4.7046,4.7185,4.7118,4.7134,4.7137,4.7179,4.7177,4.7203,4.7215,4.7215,4.7187,4.7232,4.7246,4.7347,4.7416,4.7284,4.7291,4.7616,4.7624,4.7631,4.7732,0,0,0,0,0,0,4.7023,4.7045,4.7093,4.7119,4.7138,4.7274,4.7183,4.7182,4.7215,4.7206,4.724,4.7241,4.723,4.7337,4.7354,4.7424,4.7297,4.761,4.762,4.7628,4.7723,4.7742,4.7759,0,0,0,0,0,4.7016,4.7119,4.7096,4.7114,4.7199,4.7278,4.7289,4.7272,4.7221,4.7271,4.7279,4.724,4.7406,4.7348,4.7367,4.744,4.7606,4.7617,4.7628,4.7715,4.7738,4.7758,0,0,0,0,0,0,4.7103,4.7122,4.7097,4.7211,4.7243,4.7265,4.7327,4.7297,4.7346,4.7335,4.7314,4.7323,4.743,4.7445,4.738,4.7571,4.7498,4.7513,4.7557,4.758,4.7597,4.7592,4.7303,0,0,0,0,0,4.7135,4.7196,4.721,4.731,4.7327,4.7325,4.7359,4.7343,4.7376,4.739,4.7405,4.7441,4.7501,4.7541,4.7597,4.7724,4.7732,4.7784,4.7802,4.7817,4.7831,4.7902,4.7926,4.7669,4.7669,4.7669,0,0,4.7203,4.7221,4.7261,4.7328,4.7351,4.7417,4.7337,4.7409,4.7458,4.7401,4.7498,4.7511,4.7549,4.7665,4.7716,4.768,4.7903,4.7831,4.7842,4.7848,4.7916,4.794,4.7962,4.7677,4.7675,4.7674,0,0,4.736,4.7378,4.7464,4.7489,4.7525,4.7523,4.7544,4.7571,4.7577,4.7673,4.7632,4.7692,4.7795,4.7824,4.7853,4.8023,4.7991,4.8042,4.8137,4.8206,4.8227,4.8245,4.8307,4.833,4.8056,4.8056,4.8056,0,4.744,4.7535,4.7513,4.7589,4.7621,4.7571,4.766,4.7685,4.7738,4.7763,4.7721,4.7851,4.7873,4.7996,4.8038,4.8062,4.8087,4.8039,4.8225,4.8243,4.8259,4.8319,4.8343,4.8062,4.8062,4.8061,4.8061,0,4.7633,4.77,4.7766,4.7817,4.7856,4.7938,4.7931,4.7974,4.7955,4.7959,4.8059,4.8084,4.8145,4.8172,4.8155,4.8294,4.8271,4.8228,4.8154,4.829,4.8346,4.8369,4.8071,4.8069,4.8067,4.8066,0,0,4.7846,4.7885,4.791,4.7933,4.797,4.8022,4.8103,4.8161,4.82,4.8238,4.8308,4.8397,4.8358,4.839,4.8376,4.8437,4.8574,4.8387,4.8387,4.8422,4.8731,4.8764,4.8791,4.8551,4.8556,4.8559,4.8728,0,4.8006,4.8144,4.8128,4.8261,4.8324,4.8279,4.835,4.8381,4.8387,4.8443,4.845,4.8514,4.8456,4.8476,4.8534,4.8545,4.8636,4.8532,4.8618,4.8621,4.8611,4.882,4.8855,4.9014,4.875,4.8753,4.8756,0,4.821,4.8255,4.8395,4.8423,4.8449,4.8513,4.8566,4.862,4.8655,4.8655,4.8693,4.8669,4.8753,4.8677,4.8793,4.8723,4.8758,4.8769,4.8774,4.8783,4.8698,4.8836,4.9063,4.9088,4.879,4.8787,4.8785,0,4.8355,4.845,4.8546,4.8568,4.8603,4.8649,4.8667,4.8698,4.8735,4.8782,4.8806,4.8863,4.8895,4.8941,4.8934,4.8879,4.9054,4.8977,4.9059,4.9059,4.9099,4.9097,4.9337,4.9118,4.9118,4.9117,4.9117,0,4.8535,4.8623,4.8612,4.8672,4.8769,4.8751,4.8849,4.886,4.8889,4.8952,4.8916,4.8976,4.8962,4.9023,4.9018,4.9117,4.9131,4.9136,4.9134,4.914,4.914,4.9163,4.9153,4.9124,4.9122,4.9121,4.912,0,4.8713,4.8709,4.8812,4.8836,4.8845,4.8916,4.8939,4.8996,4.8999,4.9079,4.9097,4.9102,4.9172,4.9169,4.9248,4.9245,4.9368,4.9352,4.9355,4.9353,4.9435,4.9429,4.97,4.9736,4.9493,4.9495,4.9497,0,4.883,4.8896,4.8928,4.8967,4.8987,4.905,4.9087,4.9072,4.9113,4.916,4.9213,4.9278,4.933,4.9444,4.9457,4.9518,4.9505,4.9596,4.9514,4.9518,4.9508,4.9505,4.9513,4.9612,4.9615,4.9617,4.9619,0,4.9038,4.9033,4.9087,4.9142,4.9187,4.9229,4.9268,4.9303,4.9292,4.934,4.941,4.9451,4.9532,4.9599,4.9657,4.9677,4.9648,4.9645,4.9667,4.9675,4.9675,4.9678,4.9401,4.9639,4.9637,4.9635,4.9634,4.9633,4.919,4.9248,4.9279,4.9342,4.9369,4.9407,4.9463,4.9472,4.953,4.9594,4.9582,4.9661,4.9698,4.9773,4.9799,4.9862,4.983,4.9862,4.9871,4.9879,4.989,4.9664,4.9873,4.9872,4.9871,4.9871,4.9871,0,4.9398,4.9416,4.9473,4.9529,4.9579,4.9544,4.9586,4.9631,4.9701,4.9736,4.9788,4.987,4.9935,4.9953,5.0017,5.0064,5.0053,5.0082,5.0079,5.0085,4.9914,4.9889,5.009,5.009,5.009,5.009,5.009,5.009,4.9512,4.9608,4.9607,4.9718,4.9736,4.9813,4.984,4.9875,4.9904,4.9996,5.005,5.006,5.009,5.0155,5.0214,5.0218,5.0244,5.0279,5.0278,5.0118,5.0096,5.0075,5.0052,5.0284,5.0285,5.0444,5.0445,5.0446]},{"header":{"parameterUnit":"m.s-1","parameterCategory":1,"la1":30.2991,"la2":30.254,"lo1":-89.0895,"lo2":-89.0444,"dy":0.0017,"dx":0.0017,"nx":28,"ny":28,"refTime":"2024-06-24T21:00:00:Z","depth":0,"parameterNumber":3,"parameterNumberName":"V-component_of_WINDS"},"data":[0,0,0,0,0,0,0,0,0,0,0,0,0,0,0,0,0,0,0,0,0,0,0,0,0,0,0,0,0,0,0,0,0,0,0,0,0,0,0,0,0,0,0,0,0,0,0,0,0,0,0,0,0,0,0,0,0,0,-0.2098,-0.2098,0,-0.2074,-0.2074,-0.2074,-0.2085,-0.2086,-0.2087,-0.2087,-0.2061,-0.2059,-0.2058,0,0,0,0,0,0,0,0,0,0,0,0,0,-0.2153,-0.2152,-0.2098,-0.2098,-0.2097,-0.2074,-0.2074,-0.2074,-0.2085,-0.2086,-0.2087,-0.2087,-0.2061,-0.206,-0.2058,0,0,0,0,0,0,0,0,0,0,0,0,0,-0.2129,-0.2151,-0.2098,-0.2101,-0.2101,-0.2074,-0.2074,-0.2074,-0.2085,-0.2086,-0.2087,-0.2088,-0.2062,-0.206,-0.2058,-0.2027,0,0,-0.2052,-0.2051,0,0,0,0,0,0,0,0,-0.213,-0.2127,-0.21,-0.21,-0.21,-0.2084,-0.2084,-0.2058,-0.2085,-0.2091,-0.2087,-0.2088,-0.2067,-0.2065,-0.2059,-0.2026,-0.2025,-0.2052,-0.2051,-0.205,-0.2049,0,0,0,0,0,0,0,-0.2132,-0.2128,-0.2089,-0.21,-0.21,-0.2103,-0.21,-0.2079,-0.2074,-0.209,-0.2091,-0.2088,-0.2068,-0.206,-0.2058,-0.2025,-0.2052,-0.205,-0.2049,-0.2048,-0.1967,-0.1966,0,0,0,0,0,0,-0.2134,-0.2129,-0.2089,-0.2088,-0.2118,-0.2101,-0.2098,-0.2088,-0.2074,-0.2073,-0.2088,-0.2089,-0.2063,-0.206,-0.2057,-0.2021,-0.205,-0.2048,-0.2047,-0.1968,-0.1967,-0.1966,0,0,0,0,0,0,-0.2135,-0.213,-0.209,-0.2109,-0.2104,-0.2099,-0.2087,-0.2087,-0.208,-0.2072,-0.2071,-0.2081,-0.2064,-0.206,-0.2035,-0.202,-0.2047,-0.2045,-0.1969,-0.1968,-0.1966,-0.1948,0,0,0,0,0,0,-0.2136,-0.213,-0.2119,-0.2108,-0.2103,-0.2069,-0.2087,-0.2086,-0.2077,-0.2078,-0.2066,-0.2065,-0.2064,-0.2038,-0.2033,-0.2018,-0.2044,-0.1971,-0.1969,-0.1967,-0.195,-0.1946,-0.1943,0,0,0,0,0,-0.2138,-0.2114,-0.2118,-0.2113,-0.2088,-0.2068,-0.2065,-0.2065,-0.2076,-0.2064,-0.2059,-0.2065,-0.2023,-0.2035,-0.203,-0.2014,-0.1971,-0.1969,-0.1967,-0.1952,-0.1947,-0.1943,0,0,0,0,0,0,-0.2121,-0.2112,-0.2117,-0.2089,-0.2079,-0.207,-0.2055,-0.206,-0.2046,-0.2048,-0.2049,-0.2046,-0.2021,-0.2015,-0.2029,-0.1985,-0.1999,-0.1995,-0.1989,-0.1984,-0.1981,-0.1982,-0.2042,0,0,0,0,0,-0.2114,-0.2099,-0.2092,-0.2067,-0.2062,-0.206,-0.2051,-0.2052,-0.2042,-0.2037,-0.2031,-0.202,-0.2005,-0.1995,-0.198,-0.195,-0.1947,-0.1936,-0.1933,-0.193,-0.1927,-0.1911,-0.1906,-0.1958,-0.1958,-0.1959,0,0,-0.2099,-0.2093,-0.2082,-0.2064,-0.2056,-0.204,-0.2056,-0.2038,-0.2026,-0.2034,-0.2011,-0.2006,-0.1994,-0.1967,-0.1955,-0.1962,-0.1912,-0.1927,-0.1925,-0.1923,-0.1909,-0.1904,-0.1899,-0.1957,-0.1957,-0.1957,0,0,-0.2064,-0.2057,-0.2037,-0.203,-0.2019,-0.2017,-0.2013,-0.2003,-0.2001,-0.1977,-0.1984,-0.197,-0.1943,-0.1934,-0.1927,-0.189,-0.1896,-0.1886,-0.1867,-0.1852,-0.1847,-0.1844,-0.1831,-0.1826,-0.1883,-0.1883,-0.1883,0,-0.2046,-0.2022,-0.2025,-0.2007,-0.1999,-0.2008,-0.1987,-0.198,-0.1964,-0.1958,-0.1967,-0.1934,-0.1927,-0.1898,-0.1889,-0.1883,-0.1877,-0.1886,-0.1848,-0.1844,-0.1841,-0.1829,-0.1824,-0.1881,-0.1882,-0.1882,-0.1882,0,-0.2001,-0.1985,-0.197,-0.1956,-0.1946,-0.1927,-0.1926,-0.1916,-0.1919,-0.1917,-0.1894,-0.1886,-0.187,-0.1863,-0.1865,-0.1835,-0.184,-0.1848,-0.1862,-0.1835,-0.1823,-0.1819,-0.188,-0.188,-0.1881,-0.1881,0,0,-0.1952,-0.1942,-0.1936,-0.1931,-0.1921,-0.1908,-0.189,-0.1875,-0.1866,-0.1856,-0.1841,-0.1819,-0.1827,-0.1818,-0.1819,-0.1806,-0.1779,-0.1816,-0.1816,-0.1809,-0.1746,-0.1739,-0.1734,-0.1783,-0.1782,-0.1781,-0.1746,0,-0.1916,-0.1884,-0.1887,-0.1856,-0.1842,-0.1851,-0.1835,-0.1827,-0.1825,-0.1812,-0.181,-0.1794,-0.1806,-0.1801,-0.1788,-0.1785,-0.1766,-0.1787,-0.1768,-0.1767,-0.177,-0.1728,-0.172,-0.1688,-0.1742,-0.1741,-0.1741,0,-0.1869,-0.1858,-0.1827,-0.1821,-0.1814,-0.18,-0.1788,-0.1775,-0.1767,-0.1766,-0.1758,-0.1762,-0.1743,-0.1759,-0.1734,-0.1748,-0.1741,-0.1738,-0.1737,-0.1734,-0.1751,-0.1723,-0.1677,-0.1672,-0.1734,-0.1734,-0.1735,0,-0.1836,-0.1814,-0.1793,-0.1788,-0.178,-0.177,-0.1766,-0.1758,-0.175,-0.1739,-0.1734,-0.1721,-0.1714,-0.1704,-0.1705,-0.1716,-0.1679,-0.1694,-0.1678,-0.1678,-0.1668,-0.1669,-0.162,-0.1665,-0.1665,-0.1665,-0.1665,0,-0.1795,-0.1775,-0.1778,-0.1765,-0.1743,-0.1747,-0.1726,-0.1723,-0.1717,-0.1703,-0.1711,-0.1697,-0.17,-0.1687,-0.1687,-0.1666,-0.1663,-0.1662,-0.1662,-0.1661,-0.1661,-0.1655,-0.1657,-0.1663,-0.1664,-0.1664,-0.1664,0,-0.1754,-0.1756,-0.1733,-0.1728,-0.1726,-0.1711,-0.1706,-0.1694,-0.1693,-0.1676,-0.1672,-0.1671,-0.1656,-0.1657,-0.1639,-0.164,-0.1614,-0.1617,-0.1617,-0.1618,-0.1601,-0.1602,-0.1546,-0.1539,-0.1588,-0.1588,-0.1588,0,-0.1727,-0.1713,-0.1707,-0.1699,-0.1695,-0.1681,-0.1673,-0.1677,-0.1668,-0.1659,-0.1647,-0.1634,-0.1623,-0.1599,-0.1596,-0.1584,-0.1586,-0.1568,-0.1584,-0.1584,-0.1586,-0.1586,-0.1585,-0.1564,-0.1563,-0.1563,-0.1562,0,-0.168,-0.1682,-0.167,-0.1659,-0.165,-0.1642,-0.1634,-0.1627,-0.163,-0.162,-0.1605,-0.1597,-0.1581,-0.1567,-0.1555,-0.1551,-0.1557,-0.1558,-0.1553,-0.1551,-0.1552,-0.1551,-0.1608,-0.1558,-0.1559,-0.1559,-0.1559,-0.156,-0.1645,-0.1633,-0.1627,-0.1614,-0.161,-0.1602,-0.1591,-0.159,-0.1578,-0.1565,-0.1569,-0.1553,-0.1546,-0.1531,-0.1526,-0.1513,-0.152,-0.1513,-0.1511,-0.151,-0.1508,-0.1554,-0.1511,-0.1511,-0.1511,-0.1512,-0.1512,0,-0.1597,-0.1595,-0.1583,-0.1573,-0.1563,-0.1572,-0.1564,-0.1555,-0.1541,-0.1535,-0.1525,-0.1509,-0.1496,-0.1493,-0.1481,-0.1472,-0.1474,-0.1468,-0.1469,-0.1468,-0.1502,-0.1508,-0.1466,-0.1466,-0.1466,-0.1466,-0.1467,-0.1467,-0.1572,-0.1552,-0.1553,-0.1531,-0.1529,-0.1514,-0.1509,-0.1502,-0.1497,-0.148,-0.1469,-0.1468,-0.1464,-0.1451,-0.144,-0.144,-0.1435,-0.1428,-0.1428,-0.1461,-0.1465,-0.1469,-0.1474,-0.1427,-0.1427,-0.1395,-0.1394,-0.1394]}]]